Regional Weather Roundup
Issued by NWS Pendleton, OR

Home | Current Version | Previous Version | Text Only | Print | Product List | Glossary On
Versions: 1 2 3 4 5 6 7 8 9 10 11 12 13 14 15 16 17 18 19 20 21 22 23 24 25 26 27 28 29 30 31 32 33 34 35 36 37 38 39 40 41 42 43 44 45 46 47 48 49 50
000
ASUS46 KPDT 220225
RWRPDT
PENDLETON REGIONAL WEATHER ROUNDUP
NATIONAL WEATHER SERVICE PENDLETON OREGON
700 PM PDT THU SEP 21 2017

NOTE: FAIR INDICATES FEW OR NO CLOUDS BELOW 12,000 FEET WITH NO
SIGNIFICANT WEATHER AND/OR OBSTRUCTIONS TO VISIBILITY.

# INDICATES UNOFFICIAL STATION AND DATA

WAZ520-220310-
EAST SLOPES OF WASHINGTON CASCADES

CITY            SKY/WX      TMP DP  RH  WIND    PRES   REMARKS
#BULLFROG       N/A         52  43  71  W3      N/A
#CLE ELUM HS    N/A         51  40  66  SW2     29.89R
#CLE ELUM LAKE  N/A         45  41  86  CALM    29.93R
#EASTON DOT     N/A         47  42  83  CALM    N/A
#ELK HTS DOT    N/A         48  48  100 CALM    N/A
#GLENWOOD       N/A         48  45  89  CALM    29.96R
#NELSON 3SW     N/A         45  42  89  CALM    30.14R
#NILE           N/A         46  44  93  CALM    29.24R
#TEANAWAY 4NE   N/A         48  47  96  CALM    N/A
#TROUT LAKE 1NE N/A         48  45  89  CALM    29.96R
#TROUT LAKE 1E  N/A         48  45  89  CALM    29.96R
$$

WAZ521-220310-
SIMCOE HIGHLANDS

CITY            SKY/WX      TMP DP  RH  WIND    PRES   REMARKS
#BICKLETON HS   N/A         48  41  77  N2      29.90R
#CENTERVILLE 1SWN/A         50  43  77  N5      29.92R
#GOLDENDALE 1NE N/A         53  33  46  S2      N/A
#GOLDENDALE 4W  N/A         51  27  39  W2      29.98R
#GOODNOE HILLS  N/A         52  46  80  N5      N/A
#LYLE 6NE       N/A         50  46  86  W1      29.95R
#PITT 4SE       N/A         46  43  89  N1      29.98R
$$

WAZ026-220310-
KITTITAS VALLEY

CITY            SKY/WX      TMP DP  RH  WIND    PRES   REMARKS
ELLENSBURG AP   CLOUDY      51  44  77  W6      29.93S
#ELLENSBURG CWU N/A         51  44  77  W2      29.88R
#ELLENSBURG 3NE N/A         49  44  83  CALM    28.02R
#ELLENSBURG 1E  N/A         50  44  80  CALM    29.96S
#KITTITAS 3S    N/A         51  45  80  CALM    29.92R
#MANASTASH RDG  N/A         48  48  100 SW7     N/A
#ROCKY CYN DOT  N/A         53  41  64  CALM    N/A
#RYEGRASS DOT   N/A         49  40  71  W8      N/A
$$

WAZ027-220310-
YAKIMA VALLEY

CITY            SKY/WX      TMP DP  RH  WIND    PRES   REMARKS
SUNNYSIDE AP    CLOUDY      54  43  66  CALM    29.92R
YAKIMA AIRPORT  CLOUDY      53  46  77  NW8     29.95R
YAKIMA-VAGABOND MOCLDY      50  44  80  N3      29.93R
#DONALD 2NE     N/A         53  29  39  W6      29.93R
#GRANDVIEW      N/A         54  43  66  CALM    29.94R
#MABTON         N/A         56  45  66  CALM    29.92R
#MOXEE 2E       N/A         51  N/A N/A NW5     29.92R
#NACHES 2SW     N/A         49  45  86  CALM    29.93S
#OUTLOOK DOT    N/A         56  42  59  CALM    29.88R
#PARKER DOT     N/A         54  44  69  SE6     29.92R
#TERRACE HTS    N/A         49  45  86  N1      29.91S
#TOPPENISH      N/A         55  42  61  CALM    29.85R
#I82 S UMTANUM RN/A         49  42  77  W6      N/A
#UNION GAP DOT  N/A         51  47  86  NE3     29.95F
#W YAKIMA       N/A         50  45  83  N1      29.95R
#WHITE SWAN 5E  N/A         55  45  69  CALM    29.95R
#WILEY CITY 3W  N/A         50  42  74  CALM    29.92R
#ZILLAH DOT     N/A         56  40  55  N7      N/A
$$

WAZ028-220310-
LOWER COLUMBIA BASIN...WASHINGTON

CITY            SKY/WX      TMP DP  RH  WIND    PRES   REMARKS
PASCO           PTCLDY      56  45  66  N3      29.91R
PROSSER AWOS    N/A         55  46  72  W3      29.95R
RICHLAND AWOS   MOCLDY      56  44  64  W3      29.91R
#BENTON CITY    N/A         54  44  69  CALM    29.82R
#CONNELL 5N     N/A         53  43  69  N2      29.93R
#CONNELL 5NW    N/A         53  44  71  CALM    29.88R
#ELTOPIA 6NW    N/A         56  45  66  CALM    28.88R
#KAHLOTUS       N/A         53  41  64  CALM    29.91R
#KENNEWICK 3S   N/A         55  44  66  CALM    29.91S
#PATERSON       N/A         58  43  57  CALM    29.89R
#PROSSER DOT    N/A         55  49  80  CALM    29.92R
#SAGEMOOR 2W    N/A         54  46  74  CALM    29.77R
#TOUCHET 2S     N/A         56  43  62  CALM    29.89R
#WEST PASCO     N/A         53  42  66  CALM    29.88S
$$

WAZ029-220310-
FOOTHILLS OF THE BLUES...WASHINGTON

CITY            SKY/WX      TMP DP  RH  WIND    PRES   REMARKS
WALLA WALLA AP  CLOUDY      56  45  66  N3      29.91R
#CLYDE 6NW      N/A         51  43  74  CALM    29.90R
#DAYTON SCHOOL  N/A         49  38  66  CALM    29.92R
#LOWDEN 2SE     N/A         55  46  72  CALM    29.87R
#PLEASANT VIEW 1N/A         50  40  68  CALM    29.95R
#PRESCOTT       N/A         54  47  77  CALM    29.90R
#WHITMAN COLLEGEN/A         56  46  69  CALM    29.95R
#WAITSBURG 6SSE N/A         48  40  74  SE3     29.94R
#WALLA WALLA 5E N/A         52  44  74  NE5     N/A
#WALLA WALLA U  N/A         58  44  60  CALM    29.90R
$$

WAZ030-220310-
BLUE MOUNTAINS...WASHINGTON

CITY            SKY/WX      TMP DP  RH  WIND    PRES   REMARKS
#DIXIE 5SE      N/A         46  39  76  CALM    29.84R
$$

ORZ009-041-WAZ024-220310-
COLUMBIA RIVER GORGE

CITY            SKY/WX      TMP DP  RH  WIND    PRES   REMARKS
HOOD RIVER AP   RAIN        54  46  74  N3      29.95R
THE DALLES AP   CLOUDY      60  46  60  NW8     29.92R
#CELILO DOT     N/A         58  42  55  SW2     N/A
#LYLE           N/A         56  48  74  SE1     29.94R
#MARYHILL       N/A         56  41  57  N15     N/A
#MURDOCK        N/A         59  46  62  NW8     29.89R
#RUFUS DOT      N/A         61  N/A N/A NW13    N/A
#SMITHVILLE     N/A         58  48  69  N7      29.85F

$$

ORZ510-220310-
NORTH CENTRAL OREGON

CITY            SKY/WX      TMP DP  RH  WIND    PRES   REMARKS
#ANTELOPE       N/A         47  37  68  NE1     29.81R
#CHENOWITH 1W   N/A         51  45  80  NW18    N/A
#COW CYN RST AREN/A         46  40  79  N6      N/A
#DUFUR          N/A         52  41  66  CALM    29.90R
#DUFUR 9E       N/A         49  40  71  CALM    29.99R
#GRASS VALLEY 1SN/A         50  39  66  CALM    29.95R
#KENT DOT       N/A         49  31  50  NW2     N/A
#MAUPIN SCHOOL  N/A         54  43  66  NE1     29.98R
#MORO SCHOOL    N/A         51  46  83  CALM    29.93R
#SHANIKO 4NW    N/A         42  36  79  N5      29.91R
#TYGH VALLEY 2NEN/A         52  44  74  N2      29.93R
#WAPANITIA AIRPON/A         49  43  80  W1      29.96R
#WASCO DOT      N/A         55  41  59  CALM    N/A
#WASCO 5NE      N/A         53  44  71  CALM    29.92R
$$

ORZ511-220310-
CENTRAL OREGON

CITY            SKY/WX      TMP DP  RH  WIND    PRES   REMARKS
BEND AIRPORT    CLOUDY      48  36  63  N8      29.94R
MADRAS AIRPORT  CLOUDY      50  50  100 MISG    29.94R
PRINEVILLE AP   CLOUDY      48  36  63  N8      29.93R
REDMOND AIRPORT CLOUDY      49  34  56  N8      29.92R
#ASHWOOD SCHOOL N/A         47  40  76  CALM    29.90R
#BEND 1SW       N/A         46  35  65  N2      N/A
#BEND-AWBREY    N/A         46  39  76  N2      29.94R
#BEND-KIM LN    N/A         46  38  73  N3      29.89R
#CULVER         N/A         48  39  71  CALM    29.82R
#CULVER 8W      N/A         50  37  61  CALM    29.95R
#LAKE BILLY CHINN/A         49  N/A N/A N2      30.00R
#MADRAS 4S      N/A         50  10  19  CALM    N/A
#POWELL BUTTE   N/A         47  36  65  W1      29.88R
#PRINEVILLE     N/A         50  36  58  N1      30.00R
#PRINEVILLE 3N  N/A         49  37  63  N8      29.91R
#WARM SPRINGS   N/A         54  40  59  CALM    29.79R

$$


ORZ509-220310-
EAST SLOPES OF OREGON CASCADES

CITY            SKY/WX      TMP DP  RH  WIND    PRES   REMARKS
SISTERS AWOS    N/A         45  37  73  CALM    N/A
#CAMP SHERMAN   N/A         46  36  68  CALM    30.04R
#LA PINE 4NW    N/A         41  34  76  CALM    29.98R
#LAVA BUTTE DOT N/A         43  25  49  NE5     N/A
#SISTERS ODOT   N/A         46  37  71  CALM    N/A
#SISTERS 3N     N/A         43  35  73  CALM    29.94S
#SUNRIVER       N/A         45  34  65  CALM    29.94R
#TUMALO 3W      N/A         44  36  73  N6      29.83R
#WANOGA BUTTE D N/A         36  29  75  NE3     N/A

$$

ORZ044-220310-
LOWER COLUMBIA BASIN...OREGON

CITY            SKY/WX      TMP DP  RH  WIND    PRES   REMARKS
HERMISTON       PTCLDY      58  43  57  N5      29.90R
#BOARDMAN SCHOOLN/A         60  45  58  CALM    29.89R
#BOARDMAN 8SW   N/A         58  46  64  W3      29.92R
#ECHO 8SW       N/A         56  41  57  CALM    29.91R
#I-84 EX 198 DOTN/A         54  40  59  E2      N/A
#IONE SCHOOL    N/A         57  40  53  CALM    29.92R
#UMATILLA       N/A         59  42  53  CALM    29.83R
$$

ORZ507-220310-
NORTHERN FOOTHILLS OF THE BLUES

CITY            SKY/WX      TMP DP  RH  WIND    PRES   REMARKS
PENDLETON AIRPT MOCLDY      53  41  64  N6      29.90R
#ADAMS 3WNW     N/A         52  43  71  N6      29.89R
#ATHENA         N/A         52  40  63  CALM    29.93R
#CAYUSE         N/A         53  41  64  CALM    29.90R
#HELIX SCHOOL   N/A         52  41  66  NE2     29.91R
#HELIX 3N       N/A         51  42  71  NE5     29.89R
#HOLDMAN 5SE    N/A         51  41  68  CALM    29.90R
#HOLDMAN 6E     N/A         50  42  74  N1      29.72R
#M-F GROVE ELEM N/A         53  41  64  CALM    29.88R
#M-FREEWATER 5SEN/A         50  42  74  CALM    29.91R
#PENDLETON DNTN N/A         57  36  45  CALM    29.89R
#PDT AQUATIC CTRN/A         56  40  55  VRB2    29.90R
#PDT SUNRIDGE   N/A         55  43  64  CALM    29.92R
#PENDLETON 7NW  N/A         55  43  64  CALM    27.51F
#PILOT ROCK 1S  N/A         48  38  68  CALM    29.91R
#PILOT ROCK     N/A         49  41  74  CALM    29.93R
#TUTUILLA       N/A         51  44  77  CALM    29.94S
#UMAPINE 2E     N/A         53  46  77  CALM    29.88R
#WESTON SCHOOL  N/A         50  38  63  CALM    29.84R

$$

ORZ508-220310-
SOUTHERN FOOTHILLS OF THE BLUES

CITY            SKY/WX      TMP DP  RH  WIND    PRES   REMARKS
LEXINGTON       MOCLDY      52  41  66  N6      29.95R
#AJAX           N/A         50  34  54  CALM    30.08R
#FOSSIL SCHOOL  N/A         48  37  65  CALM    29.87R
#HEPPNER EOC    N/A         52  37  56  N2      29.85R
#HEPPNER 4NE    N/A         49  38  66  NW1     29.92R
#LEXINGTON 2SE  N/A         56  40  55  CALM    29.88R
#MIKKALO        N/A         53  39  59  N6      30.03R
#OLEX 4N        N/A         53  45  74  CALM    29.91R
#RUGGS 5NE      N/A         48  34  58  VRB3    30.07S
#RUGGS 2SW      N/A         46  35  65  CALM    29.95R

$$

ORZ502-503-220310-
BLUE MOUNTAINS

CITY            SKY/WX      TMP DP  RH  WIND    PRES   REMARKS
MEACHAM         PTCLDY      41  35  79  CALM    29.91R
#BATTLE MTN DOT N/A         40  31  70  N2      N/A
#GRANITE        N/A         37  27  67  CALM    29.83S
#HEPPNER 15SE   N/A         39  36  89  CALM    29.84R
#LADD CYN SMT   N/A         44  35  70  NW8     N/A
#LADD CREEK ODOTN/A         46  35  65  N2      N/A
#LONG CREEK HS  N/A         41  39  93  S5      29.91S
#N POWDER DOT   N/A         45  35  68  N12     N/A    WCI 39
#PIKES PEAK     N/A         45  37  73  CALM    27.99S
#TOLLGATE       N/A         37  35  92  CALM    29.78R
#TROY SCHOOL    N/A         48  44  86  CALM    29.78R
#UKIAH          N/A         45  36  70  CALM    29.84R
#WESTON 4E      N/A         44  38  79  CALM    29.90R
$$

ORZ505-220310-
JOHN DAY BASIN

CITY            SKY/WX      TMP DP  RH  WIND    PRES   REMARKS
JOHN DAY        MOCLDY      47  34  60  CALM    29.91R
#JOHN DAY KJDY  N/A         50  N/A N/A NW1     28.85R
#ANTELOPE 9ESE  N/A         55  38  53  W3      N/A
#DAYVILLE SCHOOLN/A         53  33  46  N3      29.87R
#MITCHELL       N/A         48  36  63  CALM    30.08R
#MONUMENT HS    N/A         50  41  71  W6      29.88R
#MT. VERNON 5SE N/A         45  33  63  CALM    29.85R
#SPRAY SCHOOL   N/A         53  N/A N/A CALM    N/A
#WINLOCK        N/A         45  35  68  CALM    29.88R
$$

ORZ506-220310-
OCHOCO AND JOHN DAY HIGHLANDS

CITY            SKY/WX      TMP DP  RH  WIND    PRES   REMARKS
#HORSE RIDGE DO N/A         46  26  45  NW6     N/A
#IZEE 6NW       N/A         47  29  49  W2      N/A
#PAULINA ODOT   N/A         47  23  38  NW8     N/A
#PINE MTN OBS   N/A         34  27  75  CALM    N/A
#PRAIRIE CITY   N/A         48  34  58  CALM    30.04R
#SENECA         N/A         42  N/A N/A CALM    N/A
#SENECA 9NW     N/A         41  32  70  CALM    29.93R
$$

ORZ049-220310-
GRANDE RONDE VALLEY

CITY            SKY/WX      TMP DP  RH  WIND    PRES   REMARKS
LA GRANDE       CLOUDY      47  38  71  N9      29.92R
#COVE           N/A         48  39  71  NW5     29.93R
#COVE SCHOOL    N/A         47  37  68  CALM    29.92R
#COVE 6NW       N/A         47  40  76  N5      29.92R
#ELGIN 3N       N/A         46  40  79  CALM    30.32R
#ELGIN 1E       N/A         46  40  79  CALM    N/A
#IMBLER SCHOOL  N/A         45  39  79  CALM    29.89R
#ISLAND CITY 4N N/A         57  53  86  CALM    29.97R
#LA GRANDE-LEFFEN/A         45  39  79  W2      30.32R
#UNION 1S       N/A         47  40  76  NW2     29.92R
$$

ORZ050-220310-
WALLOWA COUNTY

CITY            SKY/WX      TMP DP  RH  WIND    PRES   REMARKS
JOSEPH AIRPORT  RAIN        41  37  86  W6      29.92R
#ENTERPRISE HS  N/A         42  39  89  NW3     29.82R
#IMNAHA SCHOOL  N/A         52  41  66  CALM    29.89R
#IMNAHA 10S     N/A         47  38  71  SW6     29.90R
#JOSEPH         N/A         40  38  92  W3      30.14R
#JOSEPH 3N      N/A         40  34  79  NW2     29.95R
#JOSEPH 3W      N/A         37  36  96  CALM    30.29R
#LOSTINE        N/A         42  38  86  CALM    29.75R
#LOSTINE 3SE    N/A         42  37  82  CALM    29.96R
#MT HOWARD 8000 N/A         26  25  96  NW2     29.86R
#PROMISE 1S     N/A         42  38  86  CALM    30.02R
#WALLOWA LAKE   N/A         38  35  89  CALM    29.94R
#WALLOWA SCHOOL N/A         44  40  86  CALM    29.89R



$$



USA.gov is the U.S. government's official web portal to all federal, state and local government web resources and services.